Temp
72 72 72 72 72 72 74 75 74 75 75 75 74 74 74 74 74 74 74 74 73 70 69 69 71 70 75 71 73 74 75 75 74 74 74 74 73 73 73 73 73 72 72 72 72 71 70 71 71 72 72 71 70 65 66 67 67 67 66 66 67 64
71 72 72 72 72 72 73 73 71 72 73 73 74 74 73 71 75 70 74 71 69 71 69 67 68 74 70 71 72 74 75 75 74 74 74 74 73 73 73 73 73 72 72 71 71 62 62 66 70 71 71 69 64 63 66 66 65 66 66 65 65 66
71 71 71 72 72 72 71 71 71 71 72 73 74 73 70 72 69 69 69 69 69 68 68 68 68 71 70 72 71 74 74 74 74 74 74 74 73 73 73 73 73 72 71 71 62 59 59 60 60 69 68 63 61 63 65 65 65 66 65 65 64 70
71 71 70 70 71 70 70 70 70 70 70 70 70 70 69 69 69 68 68 67 67 68 67 66 74 76 75 71 71 74 74 74 74 74 74 72 73 73 73 73 72 72 68 66 61 61 61 61 61 61 61 61 61 62 64 65 65 65 65 68 65 71
70 70 70 70 70 70 70 70 69 69 69 68 69 68 68 68 68 68 67 66 67 67 66 65 65 68 67 68 66 67 68 67 67 67 71 65 65 67 68 65 66 66 63 62 62 62 61 62 62 62 62 62 63 62 64 65 65 64 65 67 67 72
70 70 70 70 70 71 70 69 69 69 69 68 68 68 68 68 68 67 66 67 67 65 66 65 65 65 67 66 66 66 65 65 65 65 66 64 65 65 64 64 63 63 63 62 62 61 61 63 63 62 61 62 62 62 64 64 65 65 65 66 67 72
69 69 69 70 70 70 69 69 69 69 69 67 67 67 67 67 67 67 67 68 66 65 64 63 64 64 65 65 66 65 65 64 64 64 65 65 64 64 64 64 63 63 62 62 62 62 62 62 61 63 62 63 62 63 64 65 65 65 65 65 68 73
69 69 68 69 69 68 68 68 69 72 69 69 67 67 66 66 67 66 67 66 67 64 64 63 63 64 64 64 65 64 64 64 64 64 66 65 65 63 64 64 63 62 63 63 63 63 62 63 62 62 63 62 62 62 64 64 65 65 65 65 67 71
70 69 69 69 69 68 67 67 69 69 68 71 67 66 66 66 66 66 66 67 67 64 63 64 64 63 63 63 64 64 64 64 63 64 65 65 65 64 64 64 63 64 62 63 62 63 63 63 61 61 61 62 62 62 63 64 64 64 64 65 66 69
70 69 69 69 68 67 67 67 68 68 67 70 66 66 66 65 65 65 65 66 67 64 64 64 64 63 63 63 63 63 63 64 64 64 64 65 64 64 63 63 63 63 64 63 64 64 64 63 64 63 61 63 62 64 64 64 64 64 65 65 66 67
70 71 69 69 68 67 68 67 67 67 68 68 67 67 66 65 64 65 65 65 66 65 65 64 64 63 63 63 62 63 63 63 63 64 64 64 64 64 63 63 63 64 64 63 64 64 64 63 62 64 62 64 62 64 63 64 65 64 65 65 65 65
70 70 69 68 69 67 68 68 68 67 67 67 67 66 65 65 66 65 65 65 64 64 65 63 63 63 62 62 63 62 63 63 63 62 63 63 63 63 64 64 65 65 65 64 64 63 63 64 61 63 62 63 62 63 63 64 65 64 64 64 64 64
70 69 68 68 68 67 67 68 67 67 67 68 67 66 65 65 65 64 64 64 63 64 64 63 63 64 65 62 63 62 62 63 63 63 62 63 63 62 63 63 63 65 64 64 64 63 64 61 62 63 63 64 63 63 64 65 64 64 64 64 63 64
69 68 68 67 67 67 67 67 67 66 67 66 65 65 65 64 65 64 65 64 63 65 64 63 64 63 63 62 62 62 62 62 62 62 62 62 61 61 62 63 63 62 65 64 63 62 62 63 62 62 63 62 63 62 62 63 63 63 63 63 64 63
69 67 68 67 67 66 65 66 65 65 65 65 64 64 63 63 63 63 64 64 63 64 65 64 64 63 62 62 62 61 62 62 62 63 62 61 62 61 63 63 63 62 62 61 62 62 63 62 62 62 62 62 63 63 63 63 62 63 63 62 62 64
67 66 65 66 65 66 65 65 65 66 64 63 64 62 62 63 62 63 63 62 63 64 63 63 63 62 62 62 63 62 62 62 63 62 61 61 62 62 62 63 63 62 62 62 63 61 62 62 62 62 61 62 62 63 62 63 63 62 63 63 63 63
66 66 65 64 63 63 64 64 64 64 63 63 62 62 62 62 62 62 62 62 62 64 63 63 63 63 62 62 62 61 62 61 63 61 61 60 61 62 62 63 62 62 61 61 62 61 61 62 62 62 62 62 62 63 62 63 63 63 63 62 62 62
66 65 64 63 63 63 63 63 62 62 64 62 61 62 61 62 61 61 62 61 63 64 64 63 63 63 61 63 62 62 61 61 62 61 61 61 61 61 61 61 61 62 61 61 61 61 61 60 61 62 62 62 61 62 62 62 63 64 63 63 61 63
65 63 62 62 63 63 62 61 61 61 60 60 61 60 61 60 60 61 60 61 63 63 64 63 63 64 62 62 61 61 61 61 61 61 60 60 61 61 61 61 61 61 62 62 61 60 60 61 61 61 62 61 61 61 61 62 63 63 62 63 64 64
63 63 62 62 62 61 61 61 60 60 60 60 59 61 59 59 59 59 61 62 63 63 63 64 63 63 62 62 61 60 61 61 61 60 60 59 59 60 60 60 60 61 60 61 62 61 60 61 59 59 59 59 60 62 62 60 61 62 62 63 62 62
61 62 63 62 61 61 59 58 58 58 58 57 59 59 59 58 59 60 61 61 63 63 63 64 64 62 61 64 60 60 60 60 60 60 59 59 59 59 60 60 60 60 59 59 60 60 60 59 59 59 56 56 58 62 64 62 61 61 62 61 61 62
61 62 62 63 62 61 60 59 58 58 56 57 58 58 58 57 58 60 60 60 60 60 61 62 63 62 63 62 60 60 59 60 62 60 59 59 60 61 60 59 60 59 59 58 58 60 59 58 56 55 57 55 55 56 59 60 61 62 62 61 60 60
61 62 61 62 62 61 58 59 59 57 58 56 57 57 57 59 60 58 57 58 58 58 59 59 62 63 62 62 61 60 60 59 60 60 59 60 61 60 59 59 59 59 59 60 60 60 58 56 56 54 54 53 51 52 55 55 58 61 62 60 59 60
61 61 61 62 63 60 61 59 59 59 57 57 58 59 57 56 57 58 59 58 57 56 58 58 59 61 62 62 60 60 59 59 58 60 61 61 60 59 57 58 58 58 59 58 59 59 59 57 56 55 55 53 53 47 47 53 52 57 60 60 59 60
61 61 60 61 60 61 61 59 59 59 60 59 59 57 57 57 56 60 58 57 56 56 57 58 58 59 61 59 58 59 59 59 60 60 61 60 60 60 59 58 59 58 58 58 58 59 61 60 59 57 55 53 51 49 48 52 53 56 57 58 59 60
60 59 59 59 60 61 61 60 59 59 57 55 56 55 55 56 56 56 56 56 56 56 57 57 57 58 58 58 56 57 58 59 59 59 59 58 60 60 58 57 57 57 56 57 58 59 59 60 59 59 57 56 53 52 51 55 55 53 53 57 57 59
61 60 59 59 60 62 59 59 59 59 58 57 57 53 52 53 55 54 55 56 55 56 56 57 56 56 57 57 56 56 58 58 58 58 59 57 57 56 57 58 57 57 56 58 58 57 59 58 58 58 59 59 59 56 54 53 50 49 50 52 54 56
61 60 59 60 60 62 61 58 57 56 56 55 56 55 55 55 54 56 55 55 56 55 56 56 56 56 57 57 57 57 57 58 58 58 58 56 55 55 57 57 57 56 57 56 57 58 58 58 56 56 58 56 58 58 57 56 54 52 48 50 53 53
60 59 58 60 61 60 61 59 58 57 56 56 55 55 55 55 55 54 55 53 54 54 54 55 55 56 55 57 58 57 57 57 57 57 58 57 55 56 55 55 55 55 55 55 56 56 58 57 55 56 57 57 57 57 55 55 55 53 49 47 48 48
58 58 58 58 60 59 59 60 58 57 57 55 56 54 54 54 53 53 53 52 53 53 54 54 54 54 55 56 56 57 57 57 56 57 57 55 54 54 54 54 53 54 54 54 53 55 55 54 55 56 57 57 56 55 53 51 51 51 52 51 50 52
57 58 58 57 57 58 59 59 59 58 58 57 56 55 55 53 53 53 53 52 52 52 52 53 55 54 54 55 55 57 56 56 57 58 56 55 54 54 52 53 53 53 53 53 52 52 53 52 53 52 53 54 53 52 51 51 52 51 50 49 49 50
59 59 59 59 58 58 59 58 58 59 60 60 58 57 56 54 53 52 51 52 52 52 52 53 52 53 53 54 55 54 55 54 55 53 53 54 53 53 53 53 53 53 52 51 52 53 52 52 52 51 51 50 51 51 51 51 50 49 50 49 48 48
59 60 61 61 61 60 60 59 59 60 60 60 60 59 57 55 53 53 51 51 51 52 51 53 53 54 53 53 54 55 54 54 53 54 52 52 51 52 52 52 52 51 50 50 49 51 50 48 50 51 49 48 49 51 50 48 49 49 48 47 47 44
60 61 61 61 60 59 58 59 59 59 60 61 59 59 58 57 54 53 53 52 51 52 52 52 52 53 52 53 54 54 54 52 52 52 52 52 52 52 52 52 52 52 51 49 50 50 50 49 49 48 49 50 50 50 48 49 48 50 47 48 47 47
60 61 62 61 59 58 58 59 59 59 60 59 59 58 58 57 55 53 52 52 52 51 51 51 51 52 52 52 51 51 52 52 52 52 52 53 54 52 52 53 53 52 51 50 51 51 49 51 51 49 48 50 51 48 48 48 50 50 50 51 49 48
61 61 60 58 57 58 58 58 59 60 60 60 60 59 57 57 55 54 53 53 52 51 51 52 51 52 52 52 52 52 52 51 51 52 52 52 52 52 51 52 51 52 52 53 52 51 49 50 49 48 48 47 50 48 47 48 49 48 49 49 50 47
59 58 57 58 58 58 57 58 59 59 59 59 59 58 58 57 56 54 53 53 53 53 52 52 52 52 51 52 52 51 52 51 51 51 51 51 51 50 50 52 52 50 51 49 52 50 49 50 48 48 48 49 49 49 48 48 48 50 49 47 48 47
MSLP
1013.84 1013.80 1014.00 1014.28 1014.48 1014.68 1014.72 1014.72 1014.76 1014.80 1014.88 1015.00 1015.16 1015.36 1015.56 1015.68 1015.76 1015.80 1015.84 1015.96 1016.08 1016.24 1016.40 1016.52 1016.64 1016.72 1016.72 1016.84 1016.92 1017.00 1017.08 1017.16 1017.24 1017.28 1017.28 1017.32 1017.40 1017.44 1017.52 1017.56 1017.64 1017.72 1017.84 1017.96 1018.04 1018.04 1018.04 1018.00 1018.00 1017.96 1017.88 1017.88 1017.84 1017.88 1017.92 1018.04 1018.16 1018.28 1018.40 1018.48 1018.56 1018.68
1014.12 1014.16 1014.20 1014.24 1014.40 1014.60 1014.72 1014.80 1014.88 1014.88 1014.96 1015.08 1015.24 1015.44 1015.60 1015.68 1015.72 1015.84 1015.96 1016.12 1016.24 1016.36 1016.56 1016.72 1016.80 1016.76 1016.88 1016.92 1017.00 1017.08 1017.16 1017.24 1017.32 1017.36 1017.40 1017.44 1017.48 1017.52 1017.56 1017.60 1017.64 1017.72 1017.84 1018.00 1018.08 1018.16 1018.16 1018.12 1018.12 1018.04 1018.00 1018.00 1018.00 1018.04 1018.04 1018.12 1018.24 1018.40 1018.52 1018.60 1018.64 1018.72
1014.20 1014.36 1014.56 1014.48 1014.44 1014.48 1014.64 1014.80 1014.92 1014.96 1015.04 1015.16 1015.28 1015.44 1015.60 1015.64 1015.80 1015.96 1016.12 1016.28 1016.40 1016.52 1016.72 1016.80 1016.84 1016.88 1016.92 1016.96 1017.08 1017.16 1017.24 1017.32 1017.40 1017.44 1017.48 1017.52 1017.56 1017.60 1017.60 1017.64 1017.68 1017.72 1017.84 1017.96 1018.08 1018.20 1018.20 1018.16 1018.20 1018.20 1018.12 1018.20 1018.16 1018.16 1018.20 1018.28 1018.36 1018.44 1018.56 1018.60 1018.68 1018.68
1014.00 1014.16 1014.36 1014.40 1014.36 1014.48 1014.68 1014.84 1015.00 1015.08 1015.16 1015.28 1015.40 1015.56 1015.68 1015.84 1016.00 1016.16 1016.32 1016.44 1016.56 1016.68 1016.80 1016.88 1016.80 1016.80 1016.88 1017.08 1017.16 1017.20 1017.28 1017.40 1017.44 1017.52 1017.56 1017.60 1017.60 1017.64 1017.68 1017.68 1017.72 1017.72 1017.84 1017.96 1018.08 1018.16 1018.16 1018.16 1018.24 1018.32 1018.20 1018.28 1018.28 1018.24 1018.28 1018.36 1018.44 1018.52 1018.60 1018.60 1018.68 1018.64
1013.76 1013.92 1014.12 1014.24 1014.40 1014.56 1014.76 1015.00 1015.16 1015.28 1015.40 1015.48 1015.64 1015.72 1015.84 1016.00 1016.16 1016.32 1016.48 1016.64 1016.72 1016.80 1016.92 1016.96 1017.04 1017.04 1017.20 1017.28 1017.36 1017.40 1017.44 1017.56 1017.60 1017.68 1017.60 1017.76 1017.76 1017.76 1017.72 1017.84 1017.84 1017.88 1017.96 1018.00 1018.12 1018.20 1018.20 1018.20 1018.20 1018.40 1018.28 1018.28 1018.24 1018.32 1018.36 1018.44 1018.48 1018.56 1018.60 1018.56 1018.64 1018.64
1013.84 1013.96 1014.08 1014.20 1014.40 1014.56 1014.80 1015.12 1015.28 1015.36 1015.48 1015.60 1015.76 1015.88 1016.00 1016.12 1016.24 1016.40 1016.56 1016.68 1016.76 1016.92 1017.04 1017.12 1017.16 1017.24 1017.32 1017.40 1017.52 1017.60 1017.64 1017.68 1017.72 1017.80 1017.72 1017.84 1017.84 1017.84 1017.88 1017.92 1017.96 1018.04 1018.04 1018.08 1018.12 1018.20 1018.24 1018.24 1018.24 1018.40 1018.44 1018.40 1018.28 1018.32 1018.44 1018.56 1018.56 1018.60 1018.60 1018.60 1018.64 1018.60
1014.00 1014.12 1014.16 1014.20 1014.40 1014.56 1014.88 1015.00 1015.12 1015.24 1015.48 1015.72 1015.80 1016.00 1016.16 1016.20 1016.32 1016.40 1016.52 1016.64 1016.84 1017.00 1017.12 1017.24 1017.32 1017.36 1017.44 1017.44 1017.60 1017.68 1017.72 1017.72 1017.80 1017.84 1017.80 1017.88 1017.88 1017.84 1017.92 1018.00 1018.04 1018.08 1018.12 1018.16 1018.16 1018.20 1018.24 1018.24 1018.28 1018.32 1018.52 1018.48 1018.44 1018.40 1018.48 1018.56 1018.60 1018.60 1018.64 1018.68 1018.68 1018.64
1014.04 1014.16 1014.24 1014.28 1014.44 1014.64 1014.84 1015.04 1015.16 1015.24 1015.44 1015.60 1015.84 1016.08 1016.16 1016.24 1016.32 1016.40 1016.48 1016.64 1016.76 1017.00 1017.16 1017.32 1017.36 1017.40 1017.44 1017.52 1017.64 1017.68 1017.72 1017.76 1017.80 1017.84 1017.80 1017.84 1017.92 1017.96 1018.00 1018.08 1018.12 1018.12 1018.16 1018.16 1018.20 1018.16 1018.20 1018.20 1018.24 1018.28 1018.48 1018.56 1018.52 1018.48 1018.52 1018.56 1018.60 1018.64 1018.64 1018.64 1018.68 1018.64
1013.92 1014.08 1014.20 1014.28 1014.56 1014.68 1014.88 1015.12 1015.24 1015.36 1015.56 1015.60 1015.92 1016.04 1016.16 1016.20 1016.32 1016.40 1016.52 1016.68 1016.84 1017.08 1017.20 1017.28 1017.40 1017.48 1017.48 1017.60 1017.68 1017.72 1017.72 1017.80 1017.84 1017.88 1017.84 1017.88 1017.84 1017.96 1018.08 1018.12 1018.16 1018.20 1018.24 1018.24 1018.24 1018.20 1018.20 1018.16 1018.20 1018.24 1018.24 1018.52 1018.60 1018.52 1018.56 1018.60 1018.68 1018.72 1018.72 1018.72 1018.76 1018.72
1013.88 1014.04 1014.16 1014.36 1014.60 1014.76 1014.92 1015.16 1015.28 1015.40 1015.56 1015.64 1015.92 1016.04 1016.08 1016.24 1016.28 1016.40 1016.56 1016.64 1016.76 1016.96 1017.12 1017.20 1017.36 1017.48 1017.56 1017.68 1017.72 1017.76 1017.80 1017.84 1017.88 1017.80 1017.84 1017.88 1017.88 1018.04 1018.20 1018.28 1018.32 1018.36 1018.40 1018.40 1018.36 1018.28 1018.28 1018.24 1018.24 1018.24 1018.32 1018.32 1018.44 1018.48 1018.52 1018.56 1018.72 1018.84 1018.84 1018.84 1018.88 1018.84
1013.88 1014.00 1014.20 1014.44 1014.60 1014.76 1014.84 1015.08 1015.24 1015.40 1015.52 1015.68 1015.84 1015.96 1016.08 1016.16 1016.24 1016.32 1016.40 1016.56 1016.76 1016.88 1017.00 1017.16 1017.32 1017.52 1017.60 1017.68 1017.80 1017.84 1017.88 1017.88 1017.88 1017.80 1017.92 1018.12 1018.20 1018.28 1018.32 1018.36 1018.40 1018.44 1018.48 1018.52 1018.40 1018.40 1018.48 1018.56 1018.48 1018.36 1018.28 1018.20 1018.32 1018.40 1018.60 1018.68 1018.76 1018.88 1018.96 1018.96 1018.96 1018.96
1013.84 1013.96 1014.24 1014.48 1014.56 1014.76 1014.88 1015.00 1015.16 1015.32 1015.48 1015.64 1015.72 1015.88 1016.00 1016.12 1016.16 1016.20 1016.32 1016.60 1017.12 1017.28 1017.12 1017.48 1017.68 1017.56 1017.64 1017.72 1017.84 1017.92 1017.96 1017.92 1017.96 1018.12 1018.24 1018.32 1018.40 1018.32 1018.28 1018.28 1018.28 1018.36 1018.44 1018.52 1018.60 1018.64 1018.60 1018.64 1018.60 1018.56 1018.44 1018.40 1018.44 1018.52 1018.68 1018.72 1018.80 1018.92 1019.08 1019.08 1019.08 1019.12
1013.80 1013.96 1014.20 1014.40 1014.52 1014.64 1014.76 1014.88 1015.04 1015.20 1015.40 1015.52 1015.68 1015.80 1015.96 1016.04 1016.08 1016.12 1016.28 1016.92 1017.24 1017.12 1017.28 1017.52 1017.40 1017.28 1017.44 1017.60 1017.80 1017.96 1017.96 1017.96 1018.12 1018.20 1018.32 1018.48 1018.48 1018.40 1018.32 1018.32 1018.32 1018.24 1018.28 1018.44 1018.60 1018.76 1018.72 1018.68 1018.72 1018.72 1018.60 1018.60 1018.56 1018.64 1018.68 1018.72 1018.88 1018.96 1019.12 1019.12 1019.12 1019.20
1013.88 1014.00 1014.16 1014.28 1014.40 1014.56 1014.72 1014.84 1015.00 1015.20 1015.40 1015.56 1015.68 1015.84 1015.96 1016.04 1016.08 1016.12 1016.28 1016.80 1017.04 1017.04 1017.32 1017.36 1017.20 1017.28 1017.28 1017.56 1017.80 1017.84 1017.84 1017.96 1018.12 1018.28 1018.40 1018.48 1018.52 1018.52 1018.44 1018.36 1018.40 1018.36 1018.36 1018.48 1018.68 1018.84 1018.80 1018.84 1018.92 1018.88 1018.88 1018.80 1018.76 1018.76 1018.72 1018.76 1018.88 1019.04 1019.16 1019.20 1019.16 1019.24
1013.84 1013.96 1014.08 1014.20 1014.36 1014.60 1014.72 1014.88 1015.12 1015.32 1015.48 1015.60 1015.76 1015.88 1016.00 1016.12 1016.16 1016.16 1016.24 1016.64 1016.96 1017.04 1017.16 1017.44 1017.24 1017.16 1017.36 1017.56 1017.68 1017.72 1017.76 1017.92 1018.24 1018.36 1018.44 1018.48 1018.52 1018.60 1018.56 1018.56 1018.52 1018.40 1018.48 1018.56 1018.64 1018.80 1018.84 1019.00 1019.04 1019.12 1019.16 1019.00 1018.96 1018.88 1018.80 1018.88 1018.92 1019.00 1019.12 1019.16 1019.20 1019.24
1013.80 1013.92 1014.08 1014.24 1014.48 1014.64 1014.84 1015.00 1015.20 1015.36 1015.56 1015.72 1015.84 1016.00 1016.12 1016.24 1016.28 1016.28 1016.32 1016.48 1016.92 1017.32 1017.56 1017.72 1017.96 1017.88 1017.84 1017.68 1017.68 1017.68 1017.68 1017.88 1018.24 1018.44 1018.52 1018.56 1018.56 1018.72 1018.68 1018.72 1018.64 1018.60 1018.60 1018.76 1018.76 1018.96 1019.00 1019.12 1019.16 1019.24 1019.28 1019.20 1019.12 1019.00 1018.96 1018.96 1019.00 1019.08 1019.08 1019.16 1019.24 1019.28
1013.84 1013.92 1014.20 1014.44 1014.64 1014.84 1015.00 1015.16 1015.32 1015.48 1015.72 1015.88 1016.08 1016.20 1016.24 1016.32 1016.40 1016.44 1016.52 1016.72 1017.12 1017.48 1017.56 1017.64 1017.72 1018.04 1018.68 1018.28 1017.84 1017.72 1017.76 1017.96 1018.24 1018.44 1018.56 1018.52 1018.64 1018.80 1018.88 1018.84 1018.84 1018.76 1018.76 1018.84 1018.88 1019.08 1019.20 1019.24 1019.28 1019.36 1019.40 1019.44 1019.32 1019.16 1019.12 1019.08 1019.08 1019.12 1019.20 1019.36 1019.40 1019.36
1013.88 1014.04 1014.32 1014.56 1014.76 1014.96 1015.16 1015.28 1015.48 1015.68 1015.84 1016.08 1016.28 1016.32 1016.36 1016.44 1016.60 1016.68 1016.76 1016.96 1017.24 1017.24 1017.40 1017.60 1017.72 1017.72 1018.32 1018.68 1018.20 1017.84 1017.88 1018.08 1018.32 1018.52 1018.64 1018.64 1018.76 1018.80 1019.00 1018.96 1019.04 1019.00 1018.96 1019.00 1019.08 1019.08 1019.28 1019.32 1019.32 1019.36 1019.48 1019.60 1019.60 1019.40 1019.32 1019.16 1019.12 1019.12 1019.24 1019.44 1019.52 1019.56
1014.04 1014.28 1014.56 1014.76 1014.96 1015.20 1015.32 1015.56 1015.76 1015.96 1016.16 1016.36 1016.48 1016.56 1016.56 1016.64 1016.68 1016.76 1016.92 1017.04 1017.16 1017.12 1017.24 1017.52 1017.76 1017.84 1018.16 1018.68 1018.40 1017.96 1017.92 1018.12 1018.40 1018.64 1018.80 1018.88 1018.88 1018.88 1019.04 1019.00 1019.04 1019.16 1019.12 1019.20 1019.24 1019.20 1019.20 1019.20 1019.32 1019.44 1019.52 1019.60 1019.60 1019.56 1019.48 1019.32 1019.20 1019.16 1019.20 1019.28 1019.36 1019.40
1014.20 1014.44 1014.72 1014.96 1015.16 1015.44 1015.60 1015.80 1016.04 1016.28 1016.48 1016.60 1016.72 1016.72 1016.72 1016.76 1016.80 1016.84 1016.92 1017.08 1017.12 1017.08 1017.24 1017.52 1017.72 1017.92 1018.32 1018.44 1018.20 1018.08 1018.04 1018.16 1018.44 1018.64 1018.84 1019.00 1019.12 1019.12 1019.08 1019.08 1019.12 1019.12 1019.20 1019.32 1019.32 1019.36 1019.28 1019.12 1019.36 1019.52 1019.68 1019.80 1019.80 1019.72 1019.68 1019.56 1019.44 1019.28 1019.20 1019.16 1019.28 1019.32
1014.40 1014.48 1014.80 1015.16 1015.32 1015.40 1015.72 1016.08 1016.28 1016.44 1016.64 1016.80 1016.84 1016.84 1016.88 1016.88 1016.92 1016.96 1017.00 1017.08 1017.16 1017.12 1017.16 1017.28 1017.52 1018.00 1018.24 1018.04 1017.96 1017.96 1018.04 1018.20 1018.36 1018.64 1018.76 1018.92 1019.00 1019.08 1019.04 1018.96 1019.12 1019.24 1019.24 1019.28 1019.44 1019.44 1019.40 1019.24 1019.32 1019.64 1019.72 1019.84 1019.92 1019.84 1019.76 1019.72 1019.68 1019.52 1019.44 1019.36 1019.28 1019.36
1014.48 1014.68 1014.84 1014.80 1015.00 1015.20 1015.36 1015.64 1016.04 1016.52 1016.68 1016.92 1017.00 1017.04 1017.08 1017.04 1017.04 1017.08 1017.16 1017.20 1017.16 1017.16 1017.20 1017.28 1017.40 1017.68 1017.80 1017.76 1017.80 1017.84 1018.04 1018.28 1018.48 1018.64 1018.76 1018.92 1019.00 1019.00 1019.08 1019.04 1019.08 1019.32 1019.40 1019.28 1019.44 1019.56 1019.44 1019.40 1019.64 1019.76 1019.92 1019.96 1019.92 1019.92 1019.84 1019.88 1019.88 1019.80 1019.80 1019.68 1019.60 1019.56
1014.52 1014.72 1014.84 1014.84 1014.92 1015.24 1015.56 1015.76 1015.96 1016.48 1016.68 1016.96 1017.04 1017.08 1017.12 1017.16 1017.20 1017.28 1017.32 1017.36 1017.36 1017.24 1017.20 1017.20 1017.24 1017.36 1017.56 1017.56 1017.56 1017.68 1017.92 1018.28 1018.52 1018.72 1018.96 1019.04 1019.08 1019.12 1019.16 1019.16 1019.12 1019.12 1019.40 1019.36 1019.52 1019.56 1019.44 1019.32 1019.68 1019.92 1019.88 1019.96 1020.40 1020.36 1020.16 1020.12 1020.16 1020.08 1019.96 1019.80 1019.76 1019.72
1014.56 1014.64 1014.76 1014.88 1015.04 1015.36 1015.68 1016.00 1016.28 1016.52 1016.72 1016.76 1017.04 1017.20 1017.28 1017.36 1017.40 1017.32 1017.36 1017.44 1017.40 1017.36 1017.28 1017.20 1017.12 1017.12 1017.28 1017.40 1017.56 1017.72 1018.04 1018.32 1018.56 1018.72 1018.96 1019.20 1019.20 1019.24 1019.28 1019.28 1019.32 1019.28 1019.08 1019.48 1019.64 1019.72 1019.52 1019.40 1019.44 1019.60 1020.16 1020.60 1020.88 1020.76 1020.68 1020.68 1020.76 1020.48 1020.32 1020.08 1019.92 1019.84
1014.44 1014.56 1014.68 1014.92 1015.28 1015.60 1016.00 1016.40 1016.64 1016.84 1016.88 1017.08 1017.24 1017.40 1017.44 1017.60 1017.64 1017.52 1017.60 1017.60 1017.68 1017.60 1017.44 1017.32 1017.20 1017.20 1017.28 1017.52 1017.72 1017.88 1018.12 1018.36 1018.52 1018.72 1018.92 1019.12 1019.24 1019.24 1019.24 1019.28 1019.40 1019.36 1019.24 1019.04 1019.68 1019.76 1019.68 1019.60 1019.60 1019.52 1019.76 1020.76 1020.88 1020.76 1020.80 1021.00 1020.96 1020.56 1020.52 1020.32 1020.20 1020.08
1014.40 1014.56 1014.84 1015.16 1015.36 1015.64 1016.04 1016.36 1016.72 1017.00 1017.32 1017.48 1017.72 1017.76 1017.88 1017.88 1017.80 1017.76 1017.80 1017.84 1017.72 1017.68 1017.56 1017.52 1017.48 1017.44 1017.44 1017.52 1017.68 1017.84 1018.04 1018.28 1018.48 1018.72 1018.96 1019.20 1019.36 1019.48 1019.44 1019.40 1019.28 1019.16 1019.20 1019.20 1019.24 1019.68 1019.84 1019.76 1019.72 1019.72 1019.80 1019.96 1020.08 1020.24 1020.52 1021.08 1020.96 1020.92 1020.64 1020.52 1020.40 1020.24
1014.24 1014.68 1015.08 1015.36 1015.56 1015.76 1016.16 1016.32 1016.44 1016.60 1016.76 1017.04 1017.44 1017.84 1017.92 1018.04 1018.04 1018.00 1017.96 1017.84 1017.80 1017.76 1017.72 1017.56 1017.68 1017.72 1017.72 1017.68 1017.72 1017.84 1018.00 1018.20 1018.44 1018.72 1019.00 1019.28 1019.44 1019.44 1019.40 1019.36 1019.28 1019.24 1019.24 1019.24 1019.28 1019.68 1019.84 1019.92 1019.84 1019.96 1020.04 1020.04 1020.12 1020.16 1020.12 1020.52 1020.84 1021.28 1021.04 1020.56 1020.28 1020.32
1014.36 1014.80 1015.20 1015.48 1015.72 1015.80 1016.12 1016.52 1016.80 1017.00 1017.08 1017.12 1017.16 1017.52 1017.80 1018.00 1018.12 1018.08 1018.04 1018.04 1017.88 1017.92 1017.88 1017.84 1017.76 1017.84 1017.84 1017.88 1017.92 1018.00 1018.12 1018.32 1018.56 1018.88 1019.04 1019.24 1019.32 1019.36 1019.32 1019.36 1019.28 1019.28 1019.28 1019.28 1019.36 1019.56 1019.92 1019.96 1019.92 1020.16 1020.24 1020.20 1020.32 1020.40 1020.48 1020.40 1020.40 1020.48 1020.80 1021.04 1020.76 1020.36
1014.60 1015.04 1015.48 1015.60 1015.84 1016.12 1016.28 1016.72 1016.96 1017.16 1017.28 1017.40 1017.40 1017.56 1017.72 1017.88 1018.08 1018.16 1018.16 1018.24 1018.12 1018.08 1018.08 1018.08 1018.04 1018.00 1018.08 1018.00 1017.96 1018.08 1018.16 1018.36 1018.64 1018.96 1019.12 1019.28 1019.32 1019.28 1019.28 1019.28 1019.28 1019.20 1019.20 1019.24 1019.28 1019.52 1019.76 1020.00 1020.00 1020.12 1020.28 1020.44 1020.48 1020.48 1020.52 1020.56 1020.64 1020.56 1020.72 1020.96 1021.36 1021.28
1015.36 1015.88 1016.16 1016.16 1016.20 1016.40 1016.60 1016.76 1017.08 1017.28 1017.24 1017.48 1017.56 1017.72 1017.68 1017.80 1018.00 1018.12 1018.16 1018.28 1018.24 1018.20 1018.24 1018.20 1018.24 1018.24 1018.24 1018.24 1018.16 1018.12 1018.16 1018.24 1018.44 1018.68 1018.88 1019.04 1019.20 1019.24 1019.32 1019.32 1019.36 1019.32 1019.36 1019.40 1019.56 1019.52 1019.68 1019.92 1020.08 1020.28 1020.28 1020.32 1020.48 1020.68 1020.52 1020.56 1020.64 1020.80 1020.96 1020.96 1021.04 1021.20
1016.04 1016.08 1016.16 1016.28 1016.40 1016.44 1016.44 1016.56 1016.80 1017.12 1017.20 1017.32 1017.52 1017.64 1017.76 1017.92 1018.08 1018.08 1018.12 1018.24 1018.24 1018.32 1018.40 1018.40 1018.40 1018.44 1018.52 1018.52 1018.44 1018.24 1018.16 1018.28 1018.44 1018.60 1018.84 1018.96 1019.12 1019.28 1019.44 1019.48 1019.56 1019.52 1019.56 1019.60 1019.64 1019.72 1019.92 1020.16 1020.20 1020.32 1020.44 1020.36 1020.40 1020.48 1020.48 1020.64 1020.72 1020.76 1020.88 1021.00 1021.20 1021.24
1015.40 1015.40 1015.32 1015.36 1015.52 1015.84 1016.16 1016.44 1016.68 1016.92 1017.12 1017.12 1017.32 1017.60 1017.64 1017.88 1018.08 1018.12 1018.16 1018.20 1018.36 1018.32 1018.40 1018.52 1018.60 1018.60 1018.72 1018.76 1018.64 1018.56 1018.44 1018.44 1018.56 1018.72 1018.92 1019.12 1019.24 1019.36 1019.52 1019.60 1019.68 1019.76 1019.88 1020.00 1020.00 1020.00 1020.12 1020.16 1020.28 1020.44 1020.60 1020.64 1020.64 1020.72 1020.72 1020.76 1021.00 1021.08 1020.88 1021.00 1021.08 1021.52
1014.68 1014.48 1014.48 1014.52 1014.80 1015.24 1015.80 1016.24 1016.68 1017.00 1017.16 1017.24 1017.32 1017.44 1017.56 1017.84 1018.12 1018.16 1018.28 1018.32 1018.40 1018.36 1018.48 1018.56 1018.72 1018.76 1018.96 1018.96 1018.84 1018.72 1018.64 1018.60 1018.80 1018.96 1019.20 1019.28 1019.44 1019.52 1019.56 1019.72 1019.84 1020.00 1020.12 1020.12 1020.24 1020.16 1020.24 1020.52 1020.56 1020.56 1020.84 1021.16 1021.04 1020.96 1021.00 1021.16 1021.16 1021.16 1021.44 1021.52 1021.44 1021.52
1014.04 1014.16 1014.40 1014.56 1014.84 1015.60 1016.16 1016.40 1016.68 1017.12 1017.36 1017.44 1017.68 1017.60 1017.60 1017.80 1018.16 1018.36 1018.44 1018.40 1018.48 1018.48 1018.52 1018.64 1018.80 1018.88 1019.04 1019.12 1019.00 1018.84 1018.80 1018.88 1019.04 1019.24 1019.40 1019.52 1019.56 1019.60 1019.64 1019.76 1019.92 1020.00 1020.20 1020.52 1020.52 1020.48 1020.64 1020.80 1020.92 1021.08 1021.08 1020.96 1021.12 1021.16 1021.24 1021.32 1021.20 1021.16 1021.16 1021.20 1021.48 1021.60
1014.28 1014.08 1013.88 1014.44 1015.36 1015.72 1016.08 1016.40 1016.72 1017.40 1017.76 1017.76 1017.96 1017.96 1017.80 1017.96 1018.20 1018.40 1018.56 1018.56 1018.64 1018.72 1018.68 1018.80 1018.92 1019.00 1019.16 1019.12 1019.08 1019.04 1019.00 1019.08 1019.20 1019.36 1019.52 1019.64 1019.72 1019.72 1019.76 1019.84 1019.96 1020.20 1020.40 1020.52 1020.56 1020.68 1020.80 1020.80 1020.88 1021.04 1021.12 1021.12 1021.28 1021.40 1021.44 1021.48 1021.36 1021.36 1021.40 1021.40 1021.52 1021.60
1013.80 1014.04 1015.08 1016.16 1017.04 1017.32 1017.24 1017.08 1017.08 1017.12 1017.36 1017.44 1017.80 1017.88 1018.00 1018.12 1018.32 1018.44 1018.48 1018.56 1018.68 1018.84 1018.88 1019.00 1019.12 1019.20 1019.16 1019.08 1018.96 1019.00 1019.08 1019.16 1019.32 1019.40 1019.48 1019.60 1019.68 1019.76 1019.80 1019.88 1020.08 1020.16 1020.36 1020.60 1020.56 1020.68 1020.88 1020.88 1021.04 1021.12 1021.16 1021.32 1021.24 1021.44 1021.52 1021.48 1021.48 1021.48 1021.48 1021.52 1021.52 1021.68
1014.44 1015.20 1015.76 1016.64 1017.08 1017.08 1017.16 1017.20 1017.24 1017.28 1017.40 1017.40 1017.60 1017.76 1017.92 1018.04 1018.24 1018.48 1018.64 1018.72 1018.76 1018.92 1019.08 1019.20 1019.28 1019.48 1019.40 1019.28 1019.08 1019.00 1019.08 1019.24 1019.32 1019.36 1019.48 1019.60 1019.72 1019.84 1019.92 1019.96 1020.08 1020.24 1020.40 1020.64 1020.68 1020.84 1020.96 1020.96 1021.16 1021.20 1021.24 1021.20 1021.24 1021.32 1021.36 1021.48 1021.52 1021.64 1021.68 1021.72 1021.72 1021.68
Wind_Speed
6 8 8 7 6 6 8 12 11 13 14 13 11 12 10 10 9 9 8 7 7 4 3 3 4 3 7 3 6 7 8 8 8 7 7 7 7 7 6 5 3 2 0 3 4 6 6 6 7 7 7 6 6 3 5 5 5 4 3 3 2 2
5 6 6 6 5 5 6 9 5 6 6 9 10 10 8 5 7 4 8 5 4 3 3 3 3 6 3 3 4 7 8 8 8 7 6 6 6 5 5 5 3 2 0 2 3 2 3 5 6 7 6 6 4 3 4 4 5 5 3 3 2 3
6 6 6 6 5 5 6 5 5 5 5 8 7 7 4 4 3 3 3 3 3 4 3 3 2 4 4 5 4 7 7 7 7 7 6 5 5 4 3 4 3 2 1 1 1 2 2 3 3 6 5 4 2 3 4 4 4 4 4 3 3 5
9 9 8 6 5 5 5 5 4 4 4 4 4 4 3 3 3 3 3 3 4 3 2 3 6 9 7 4 3 7 7 7 7 6 7 4 5 4 4 4 4 3 0 1 0 1 2 3 2 3 2 2 2 2 4 4 5 4 5 4 4 7
9 9 9 7 7 5 5 4 4 4 4 4 4 4 4 3 3 3 3 2 2 2 2 1 1 2 4 3 2 2 2 2 2 1 3 1 1 1 1 0 0 0 0 1 1 2 2 3 3 2 1 1 1 2 3 3 4 4 5 4 4 8
7 7 7 6 6 7 7 5 5 5 5 4 4 4 3 4 4 4 3 3 2 3 3 2 2 3 4 3 3 2 2 2 2 2 2 2 1 1 0 1 1 2 2 1 1 2 1 2 3 1 1 1 0 2 5 3 4 4 5 4 4 10
7 6 6 6 6 6 5 5 5 5 6 4 4 4 4 4 4 4 3 3 4 3 4 3 3 3 3 3 3 2 2 1 2 2 1 3 2 2 2 2 1 2 1 2 2 2 2 3 2 2 1 1 1 1 4 5 5 5 5 4 4 11
6 6 6 6 6 6 5 5 6 7 5 5 5 4 4 4 4 4 3 3 3 3 4 3 3 3 3 3 3 2 2 2 2 2 2 2 3 2 1 1 1 2 2 2 3 3 2 2 3 2 0 2 2 2 3 5 5 4 4 5 4 8
7 7 6 6 5 5 5 5 4 5 5 6 4 4 4 4 4 3 3 4 3 4 2 3 3 2 2 2 3 2 3 2 2 3 2 4 3 3 2 2 2 3 2 3 3 4 3 3 3 2 2 1 2 3 3 3 4 4 3 3 5 6
8 7 6 6 5 5 5 5 4 4 5 6 4 4 4 4 4 4 4 4 4 4 4 4 3 3 4 2 2 2 2 3 3 4 4 5 3 2 2 1 2 2 3 3 3 3 2 3 4 4 3 2 2 4 4 5 4 4 3 3 3 3
7 7 6 6 5 5 5 5 5 5 5 5 5 5 4 4 4 4 4 3 3 3 4 4 3 3 2 3 2 2 2 2 4 4 1 1 3 1 1 1 2 3 4 3 5 2 2 3 4 4 1 3 1 3 2 2 3 2 3 3 3 3
8 7 6 5 5 6 6 6 6 5 5 5 6 5 5 4 5 4 3 3 3 0 2 3 2 1 2 3 3 2 1 3 3 2 2 1 2 2 0 2 2 2 3 2 3 2 1 1 2 3 2 2 1 3 4 4 4 3 2 2 2 1
7 7 7 7 6 6 5 5 6 5 5 5 4 5 5 4 4 3 3 5 3 3 2 4 5 5 3 4 3 2 2 1 1 2 3 3 1 1 2 3 2 2 3 2 1 1 1 2 4 3 3 2 2 2 3 4 4 3 3 3 2 1
6 7 6 6 6 5 5 4 4 4 4 4 3 4 4 3 3 3 3 6 5 3 2 4 6 4 4 3 3 3 3 2 1 1 2 2 1 2 3 3 3 1 2 3 2 1 2 3 4 3 4 2 4 3 2 3 3 3 2 2 3 2
5 6 5 6 5 5 3 4 4 4 4 4 3 3 4 3 3 2 2 5 6 5 4 3 3 5 3 4 4 3 3 2 2 3 2 2 2 1 3 4 4 1 2 3 2 2 3 3 3 5 3 3 4 3 4 3 2 3 3 3 3 3
5 5 5 5 4 4 4 4 4 4 4 3 3 2 2 2 2 1 1 2 4 3 2 4 5 4 1 2 3 3 3 1 4 3 3 2 3 2 2 3 3 1 3 3 4 3 3 4 4 5 3 4 3 3 4 4 4 2 1 3 3 3
7 6 4 4 4 3 4 4 4 4 4 3 3 2 2 2 2 2 1 1 5 6 5 4 3 2 3 2 1 1 0 1 4 3 2 1 3 3 2 2 3 4 1 3 4 5 4 4 4 4 4 3 3 3 5 4 4 4 3 1 1 2
5 4 4 5 4 4 4 4 4 4 4 4 3 2 2 2 2 2 2 2 4 5 4 4 3 3 1 2 1 1 0 2 4 4 3 1 2 1 2 1 2 3 3 2 4 6 5 3 4 4 4 4 3 4 3 4 4 4 5 3 2 0
5 5 4 4 4 5 6 5 5 5 4 3 3 3 2 2 1 2 2 2 3 3 4 5 5 2 3 4 2 2 2 2 4 4 3 2 2 3 1 1 3 3 4 3 2 3 4 4 4 3 4 3 3 3 3 3 4 4 4 3 3 2
5 6 5 5 6 6 5 5 5 4 4 3 2 2 1 1 1 1 1 3 4 4 4 5 6 3 2 4 3 2 1 2 4 4 4 3 3 4 4 4 3 4 4 4 4 2 1 4 3 5 3 3 3 3 3 3 3 3 2 3 3 2
5 6 7 7 6 7 6 4 4 4 4 1 2 1 1 1 1 1 1 3 3 4 4 5 7 7 6 4 2 2 1 1 2 2 3 3 3 2 2 3 4 1 3 4 2 1 2 1 4 2 1 3 3 2 4 3 2 1 2 2 2 1
5 5 6 7 7 5 3 4 5 4 3 2 2 2 1 1 1 1 1 1 2 3 3 3 4 6 5 5 4 3 2 2 2 2 1 1 1 1 1 2 3 3 2 3 1 1 3 1 2 2 1 0 2 2 2 4 3 3 2 1 2 1
6 6 5 5 6 6 3 3 4 3 4 3 2 0 1 1 1 2 2 1 1 2 3 3 4 5 5 5 5 4 4 3 2 1 1 1 1 1 1 2 2 5 1 2 2 1 3 0 3 2 2 3 2 1 2 3 3 4 3 2 1 1
6 5 6 4 5 5 6 6 6 5 4 4 3 3 4 3 3 4 4 3 3 2 3 3 3 4 4 4 4 3 3 3 2 1 3 4 2 2 1 3 1 1 5 2 1 1 2 3 3 3 1 1 0 1 1 1 2 1 2 1 1 1
7 6 5 5 7 8 8 7 7 6 6 6 5 4 3 3 2 2 2 4 3 2 3 3 3 3 4 5 4 4 4 4 3 3 4 3 3 4 3 2 6 5 4 6 3 2 2 3 3 1 6 3 2 1 1 0 2 0 2 1 2 2
6 5 6 5 7 7 7 8 7 8 7 5 6 5 3 3 2 3 2 0 3 3 3 4 3 3 3 3 3 4 5 5 4 4 4 3 3 2 2 1 0 1 2 1 4 3 2 3 3 4 3 2 3 2 2 1 0 0 2 1 2 2
8 6 6 6 6 7 6 6 6 6 6 7 8 2 1 0 2 2 2 4 3 4 4 5 4 4 4 3 3 4 5 5 5 4 3 3 3 2 2 1 1 3 2 4 4 3 4 2 3 4 4 3 3 2 3 3 1 1 2 2 2 2
6 6 6 7 6 7 7 4 4 4 3 5 5 5 5 4 2 2 5 3 4 4 4 4 4 4 4 4 4 5 6 6 6 4 4 4 3 2 4 2 3 3 3 3 4 5 4 2 3 1 3 3 3 3 3 4 3 2 3 2 1 3
6 6 6 7 7 5 6 6 6 5 3 1 3 4 3 4 4 2 5 3 4 4 4 4 3 4 3 4 4 6 6 6 6 4 4 5 3 3 4 4 3 4 4 4 3 3 4 3 2 2 3 2 4 3 3 2 2 2 2 2 0 1
6 7 5 4 5 5 5 7 6 5 6 4 4 3 3 4 3 3 4 3 3 4 4 5 4 3 4 3 4 5 6 7 6 5 4 5 4 4 4 4 3 4 4 5 3 4 5 4 3 3 2 3 2 2 3 2 3 3 3 2 3 1
10 8 6 4 3 4 7 7 8 7 8 8 6 6 5 3 3 3 4 2 3 3 3 3 3 3 3 3 4 4 5 5 4 4 5 4 4 4 4 4 4 4 5 5 4 5 6 4 4 4 3 3 4 3 2 1 1 0 1 1 2 1
9 8 8 9 9 8 7 6 6 8 9 9 9 7 7 6 4 4 3 3 1 3 3 3 3 4 3 2 4 4 4 5 5 5 5 4 4 4 4 4 5 5 5 5 4 6 5 6 6 6 5 4 5 4 4 4 1 2 3 1 2 1
12 12 12 12 11 10 8 7 6 6 6 7 8 8 7 6 4 5 4 3 3 3 2 3 2 4 2 3 4 5 4 6 5 4 4 4 4 4 5 5 5 5 5 5 4 5 7 5 5 7 6 3 5 5 4 2 4 5 4 5 5 3
13 13 11 10 10 8 6 6 5 3 5 5 5 5 6 7 5 4 4 4 3 4 4 3 2 3 3 2 2 3 4 4 4 4 4 4 4 4 5 6 5 6 5 4 5 6 6 5 5 4 4 6 5 6 3 2 3 4 3 4 4 2
10 12 14 10 8 10 8 6 8 7 5 3 6 5 5 6 6 5 3 3 2 2 2 2 3 2 1 2 3 4 4 5 5 5 5 4 5 5 5 6 6 6 4 4 6 6 5 6 6 5 4 5 5 4 3 2 3 3 4 4 5 3
14 11 5 12 11 6 3 2 3 9 8 9 6 5 4 4 4 4 4 5 4 2 2 1 2 1 2 2 4 4 4 5 4 5 5 5 5 5 5 6 5 5 5 3 6 6 4 6 5 5 5 4 5 3 2 3 4 4 4 4 5 4
5 9 15 13 9 7 7 7 7 5 5 6 7 7 7 6 5 4 3 4 4 3 1 1 1 2 2 1 2 4 4 4 4 4 4 4 5 4 4 5 6 5 5 4 5 5 4 5 4 4 4 4 5 5 2 2 4 4 3 3 2 2
Wind_Direction
150 147 153 159 157 157 162 148 151 151 149 145 145 144 147 148 146 147 145 139 131 115 115 128 128 130 141 117 129 142 146 146 151 151 155 157 154 157 156 153 149 161 356 12 15 26 16 13 29 39 55 58 48 66 138 138 137 132 131 143 141 188
151 153 156 152 146 151 157 145 145 148 145 145 147 152 151 153 151 141 149 128 119 122 106 104 131 143 112 131 136 149 151 153 157 162 163 161 163 164 162 162 159 181 267 21 31 40 6 2 22 37 50 55 43 60 123 126 129 133 134 134 146 210
155 148 154 152 155 155 145 139 136 135 142 148 157 147 146 145 123 132 109 118 115 104 112 120 128 138 135 132 146 154 157 161 163 167 168 170 171 179 177 167 182 189 247 47 58 23 7 1 11 39 44 56 38 63 116 117 123 133 139 151 158 199
163 163 164 163 155 147 141 135 133 133 137 137 123 124 123 117 118 103 103 98 99 113 111 146 169 161 151 135 155 158 160 164 169 166 174 168 187 191 196 192 191 204 210 22 41 7 348 343 4 57 32 78 91 64 137 141 141 140 152 170 172 197
169 164 163 159 150 143 125 116 111 118 118 114 115 112 116 113 110 95 85 91 104 109 111 96 28 68 95 114 106 123 139 125 106 129 131 107 92 252 161 112 318 31 221 278 335 320 347 330 333 57 7 43 84 86 143 141 142 153 168 176 179 193
164 161 157 150 145 147 138 134 134 142 133 123 123 120 117 120 115 108 107 116 101 107 108 88 72 104 117 129 130 121 118 105 111 132 116 130 168 252 263 188 218 232 262 273 271 281 286 292 303 52 62 51 349 103 141 150 150 166 183 176 187 190
162 156 146 141 142 143 145 147 148 151 143 140 127 129 133 129 133 132 138 137 129 127 115 103 100 113 128 133 139 134 145 149 152 171 168 158 193 221 213 212 229 256 299 301 293 293 293 285 276 310 115 159 229 136 155 159 167 178 176 180 197 189
153 153 150 151 150 145 144 146 153 159 146 152 141 142 146 148 147 148 145 141 124 132 133 121 121 122 140 133 152 156 146 160 179 209 191 181 190 213 225 230 234 274 280 275 279 285 290 292 295 287 179 173 181 180 171 175 175 182 176 191 194 191
159 159 155 152 150 141 143 139 153 152 152 163 139 147 152 151 159 156 140 135 128 128 118 135 133 122 127 144 144 150 167 182 196 224 203 220 199 200 204 209 229 252 259 273 281 287 304 300 305 292 284 132 161 177 185 175 176 182 195 190 195 198
162 160 157 153 148 149 155 151 158 155 160 161 153 146 151 162 169 156 152 147 144 145 157 156 139 131 141 158 162 140 154 181 197 216 211 220 213 182 210 232 273 270 274 272 281 278 311 315 336 340 24 329 157 175 184 175 174 187 190 185 201 215
153 158 155 157 155 148 152 161 161 155 173 160 156 151 159 166 174 169 167 151 141 151 156 154 127 138 136 150 164 163 177 197 214 218 239 333 25 30 21 291 261 251 250 260 261 319 0 360 344 349 347 280 45 143 174 155 144 161 185 190 198 205
156 155 157 150 152 151 164 166 162 159 170 155 154 156 161 167 181 188 165 139 70 165 156 86 120 259 167 153 168 165 220 223 253 11 32 10 36 28 301 246 226 231 245 260 301 7 34 37 350 27 31 25 17 150 157 152 148 154 190 194 199 230
152 155 153 157 157 162 160 162 159 166 159 154 155 150 158 176 177 183 170 97 145 214 144 158 175 197 193 173 160 148 195 245 19 34 28 41 61 355 348 342 324 241 214 193 274 352 61 65 67 43 49 36 63 103 151 136 137 154 187 187 173 196
153 153 153 150 153 159 161 148 134 128 136 126 139 150 155 155 162 171 170 129 160 208 179 175 180 186 166 155 134 165 200 194 146 94 73 72 52 2 3 351 339 310 209 167 202 121 100 77 63 58 49 43 63 63 108 118 144 157 167 181 171 163
161 147 146 158 157 153 139 127 122 116 113 129 124 131 127 130 147 171 172 147 163 181 205 170 196 156 149 142 148 183 226 205 108 90 80 44 69 23 360 352 336 42 70 84 87 112 121 110 100 72 46 39 56 59 70 76 93 155 172 173 160 173
155 149 154 156 148 139 129 117 115 124 108 103 98 84 101 114 122 116 148 174 136 124 62 50 7 13 34 128 148 182 236 83 86 91 81 59 51 22 346 358 350 29 99 95 107 72 92 109 97 92 68 56 42 47 66 62 56 45 161 162 175 176
164 162 148 138 124 114 116 116 112 99 98 92 86 79 75 91 97 107 82 79 69 87 105 117 99 68 320 335 114 169 314 52 80 93 85 67 63 14 328 16 9 13 42 129 117 115 83 90 95 86 84 79 57 58 56 63 63 66 65 71 201 194
158 146 139 145 139 117 103 95 83 85 87 78 83 82 61 72 94 101 98 80 93 121 122 110 133 139 136 312 279 146 79 67 91 99 105 102 112 96 315 58 72 23 29 75 122 121 117 102 97 88 74 79 78 69 60 66 73 70 77 69 29 353
139 132 129 125 110 96 90 77 75 77 76 75 76 79 95 85 95 103 107 109 102 118 133 134 140 172 124 192 207 150 158 106 98 103 111 125 172 186 196 80 117 83 57 49 81 109 135 124 100 81 75 55 65 70 55 58 65 69 77 92 81 63
128 126 117 117 117 108 99 106 106 88 74 82 91 114 83 112 104 113 132 131 140 146 154 156 146 151 187 202 162 141 148 75 100 119 133 147 179 181 159 126 126 125 108 65 47 39 87 112 84 81 80 61 54 85 74 48 62 87 73 63 74 80
142 135 139 142 144 140 124 103 75 90 109 102 116 94 89 153 161 194 176 157 161 171 178 168 168 161 183 181 139 110 95 75 87 133 153 176 199 190 167 149 142 111 123 104 39 4 326 77 110 69 26 68 56 55 96 100 81 45 46 36 37 52
140 145 159 156 150 138 126 136 132 141 125 101 85 80 56 307 225 261 233 186 179 188 185 179 171 157 158 161 152 154 150 135 155 175 177 162 183 180 156 143 135 53 5 113 123 316 292 94 26 144 147 314 1 349 60 82 51 39 43 30 6 7
148 150 154 144 136 129 95 92 105 132 124 104 77 92 110 15 60 78 54 62 125 171 178 179 182 167 156 158 161 159 157 130 139 148 120 123 243 201 199 198 174 144 86 73 101 16 334 23 157 166 129 80 345 50 336 25 16 27 18 353 0 53
153 150 143 134 115 96 99 88 81 102 75 96 120 71 65 40 39 54 43 25 34 47 87 98 144 160 145 142 146 148 108 112 124 144 138 170 189 205 189 205 107 184 137 98 97 12 4 3 110 123 35 41 197 113 8 5 0 315 340 298 33 35
158 153 135 117 114 115 104 91 97 79 86 77 57 53 58 32 15 80 82 40 19 36 77 69 64 95 120 126 126 133 128 125 131 135 143 154 181 204 222 181 190 176 179 150 143 138 56 41 48 64 139 110 44 29 216 282 10 309 348 17 334 338
146 138 123 118 125 122 129 133 132 132 133 123 128 121 118 137 70 55 67 334 42 36 70 82 70 81 88 107 117 131 128 126 115 95 103 132 152 168 189 168 292 134 94 71 134 132 113 29 64 64 87 138 168 174 178 194 49 191 307 210 287 300
156 135 115 121 125 120 123 144 153 154 152 152 143 165 177 217 113 58 57 63 50 37 35 80 75 91 103 98 94 93 107 104 97 97 110 111 115 147 133 114 118 93 139 121 116 120 141 145 72 49 46 50 69 59 128 128 166 89 23 314 10 356
145 126 124 131 133 140 140 136 118 117 137 147 149 144 136 117 79 97 74 46 56 38 35 45 78 74 90 103 106 98 106 108 98 99 97 99 120 122 95 65 88 110 97 98 120 133 140 148 136 130 47 43 48 55 59 75 115 153 162 157 312 324
130 117 123 137 135 141 133 136 142 140 119 85 106 110 114 89 95 84 87 36 59 52 47 43 52 86 75 95 94 104 105 104 104 107 117 120 110 106 112 119 101 86 91 73 92 124 125 150 102 148 122 56 57 43 41 48 83 73 117 104 292 348
73 54 58 82 119 123 130 139 143 156 141 129 108 82 81 91 80 82 95 58 61 64 56 65 50 62 82 75 99 101 103 104 109 112 101 101 98 87 84 88 98 112 109 92 70 107 134 144 128 115 114 143 94 51 31 19 27 66 48 75 153 161
67 80 85 92 100 148 156 160 155 158 152 146 146 137 121 92 86 79 104 79 70 63 48 63 67 60 73 97 94 98 99 99 93 90 91 88 84 91 79 84 83 83 76 87 87 89 85 83 98 91 83 105 133 149 161 150 191 131 132 101 57 0
113 134 150 151 148 161 160 160 160 159 159 158 153 155 151 156 157 150 152 133 72 78 61 47 60 83 76 76 94 81 86 88 88 86 82 87 84 78 73 73 67 69 69 62 66 77 77 78 78 78 61 56 69 78 64 89 159 121 104 149 118 131
159 167 168 169 164 159 153 148 146 161 163 156 157 157 155 154 168 160 162 139 122 123 90 88 90 107 135 133 123 110 105 103 95 90 93 83 82 79 79 75 77 71 68 67 72 84 81 75 81 87 90 54 75 67 65 79 113 108 84 110 106 90
170 166 173 172 159 121 106 128 141 146 158 157 155 168 159 157 167 163 159 161 164 158 155 169 170 167 184 162 123 130 119 106 104 104 101 102 95 94 94 93 87 85 81 91 84 82 93 93 85 97 102 86 74 86 84 84 112 98 126 89 66 83
177 185 179 162 112 116 131 139 133 150 183 163 169 188 162 154 154 153 159 155 166 135 154 209 204 219 211 131 132 116 119 119 124 123 123 116 113 104 103 98 99 104 102 106 93 96 98 107 102 103 92 110 113 89 105 100 94 96 107 104 131 142
188 183 111 54 49 65 91 73 165 164 180 167 181 159 138 135 144 158 161 161 169 178 199 229 279 296 239 162 136 124 117 127 133 131 126 126 119 110 108 105 99 101 101 100 99 97 113 102 108 114 120 129 95 95 98 88 85 96 84 119 116 113
186 87 94 99 138 156 161 164 233 196 177 163 169 162 160 162 160 158 161 162 161 186 177 185 284 326 298 285 135 131 128 131 132 128 120 121 118 115 115 113 116 112 113 103 103 116 120 110 130 125 103 106 114 108 73 98 79 83 93 71 90 121